Tracking 19575 objects as of 20-Feb-2019
HD Live streaming from Space Station
objects crossing your sky now

COSMOS 1288

Track COSMOS 1288 now!
10-day predictions
COSMOS 1288 is classified as:


NORAD ID: 12637
Int'l Code: 1981-074B
Perigee: 1,471.2 km
Apogee: 1,500.0 km
Inclination: 74.0 °
Period: 115.5 minutes
Semi major axis: 7856 km
RCS: 0.6864 m2 (medium)
Launch date: August 6, 1981
Source: Commonwealth of Independent States (former USSR) (CIS)
Launch site: PLESETSK MISSILE AND SPACE COMPLEX (PKMTR)
aabbcc
Your satellite tracking list
Your tracking list is empty




NASA's NSSDC Master Catalog

Two Line Element Set (TLE):
1 12637U 81074B   19050.97670142 -.00000023 +00000-0 -46806-4 0  9995
2 12637 074.0332 039.5268 0018369 307.4850 112.3711 12.46670078708368
Source of the keplerian elements: AFSPC